This is the latest recevied weather packets stored in our database for station/object N2XP-2. If no packets are shown the sender has not sent any weather packets the latest 10 day(s).
| Time | Temp. | Humidity | Pressure | Rain* | Wind** | Luminosity | Snow |
|---|---|---|---|---|---|---|---|
| 1777970985 | 15.56° C | 85% | 1010.7 hPa | 0 mm | 1.34 m/s, 259° | - | - |
| 1777970979 | 15.56° C | 85% | 1010.7 hPa | 0 mm | 1.34 m/s, 277° | - | - |
| 1777970772 | 15.56° C | 85% | 1010.7 hPa | 0 mm | 1.34 m/s, 259° | - | - |
| 1777970470 | 15.56° C | 85% | 1010.7 hPa | 0 mm | 1.34 m/s, 277° | - | - |
| 1777970321 | 15° C | 86% | 1010.6 hPa | 0 mm | 0.89 m/s, 267° | - | - |
| 1777970171 | 15.56° C | 85% | 1010.7 hPa | 0 mm | 0.89 m/s, 228° | - | - |
| 1777969871 | 15.56° C | 86% | 1010.6 hPa | 0 mm | 1.79 m/s, 283° | - | - |
| 1777969568 | 15.56° C | 86% | 1010.6 hPa | 0 mm | 0.89 m/s, 232° | - | - |
| 1777969269 | 15° C | 86% | 1010.6 hPa | 0 mm | 0.89 m/s, 267° | - | - |
| 1777969070 | 15° C | 85% | 1010.7 hPa | 0 mm | 0.45 m/s, 195° | - | - |
| 1777969054 | 15° C | 85% | 1010.6 hPa | 0.25 mm | 0.89 m/s, 250° | - | - |
| 1777968969 | 15° C | 86% | 1010.6 hPa | 0 mm | 1.79 m/s, 203° | - | - |
| 1777968703 | 15° C | 86% | 1010.6 hPa | 0 mm | 0.89 m/s, 235° | - | - |
| 1777968666 | 15° C | 86% | 1010.6 hPa | 0 mm | 0.89 m/s, 235° | - | - |
| 1777968367 | 15° C | 86% | 1010.6 hPa | 0 mm | 0.45 m/s, 249° | - | - |
| 1777968068 | 15° C | 85% | 1010.7 hPa | 0 mm | 1.34 m/s, 283° | - | - |
| 1777967765 | 15° C | 85% | 1010.7 hPa | 0 mm | 0.45 m/s, 195° | - | - |
| 1777967465 | 15° C | 85% | 1010.6 hPa | 0 mm | 1.34 m/s, 260° | - | - |
| 1777967219 | 15° C | 85% | 1010.6 hPa | 0.25 mm | 0.89 m/s, 250° | - | - |
| 1777967166 | 15° C | 85% | 1010.6 hPa | 0.25 mm | 0.89 m/s, 250° | - | - |
| 1777966862 | 15° C | 85% | 1010.6 hPa | 0.25 mm | 0.89 m/s, 243° | - | - |
| 1777966563 | 15° C | 85% | 1010.6 hPa | 0.25 mm | 0.89 m/s, 259° | - | - |
| 1777966264 | 15° C | 85% | 1010.6 hPa | 0.25 mm | 0.89 m/s, 298° | - | - |
| 1777965961 | 15° C | 85% | 1010.6 hPa | 0.25 mm | 0.89 m/s, 309° | - | - |
| 1777965662 | 15° C | 85% | 1010.5 hPa | 0.25 mm | 0.89 m/s, 256° | - | - |
* Rain latest hour (hover to see other rain measurements)
** Current wind speed in m/s (hover to see current wind gust speed)